DAL2604 MMUN-MMSD

Flight info

Callsign DAL2604
Flight time 2h 56m
Altitude 40000
Route CUN3A CUN UJ84 CZA UT22 PERGO UT23 TAM UJ46 CDR UJ6 DGO UT71 TENAY TENAY1A
Aircraft A359/H-SDE2E3GHIJ3J4J5LM1ORWXY/LB1D1

Departure

Time 2026-04-27 02:01
Airport Cancún International Airport (MMUN)

Arrival

Time 2026-04-27 04:57
Airport Los Cabos International Airport (MMSD)
Time Latitude Longitude Altitude Speed Heading
2026-04-27 01:06 21.03668 -86.86710 0 ft 0 kts 303°
2026-04-27 01:49 21.03666 -86.86708 0 ft 2 kts 303°
2026-04-27 01:49 21.03652 -86.86685 26 ft 4 kts 303°
2026-04-27 01:49 21.03640 -86.86665 39 ft 4 kts 284°
2026-04-27 01:49 21.03639 -86.86646 30 ft 4 kts 242°
2026-04-27 01:50 21.03654 -86.86625 43 ft 4 kts 219°
2026-04-27 01:50 21.03670 -86.86612 44 ft 0 kts 213°
2026-04-27 01:54 21.03659 -86.86620 45 ft 9 kts 213°
2026-04-27 01:54 21.03596 -86.86665 49 ft 12 kts 213°
2026-04-27 01:54 21.03519 -86.86719 49 ft 14 kts 213°
2026-04-27 01:54 21.03431 -86.86782 49 ft 16 kts 213°
2026-04-27 01:55 21.03357 -86.86839 48 ft 12 kts 230°
2026-04-27 01:55 21.03370 -86.86926 48 ft 14 kts 301°
2026-04-27 01:55 21.03424 -86.87017 48 ft 15 kts 303°
2026-04-27 01:55 21.03487 -86.87119 48 ft 17 kts 304°
2026-04-27 01:56 21.03634 -86.87354 49 ft 21 kts 303°
2026-04-27 01:56 21.03717 -86.87487 49 ft 22 kts 303°
2026-04-27 01:56 21.03804 -86.87625 48 ft 22 kts 304°
2026-04-27 01:57 21.03891 -86.87761 48 ft 23 kts 304°
2026-04-27 01:57 21.03983 -86.87909 48 ft 25 kts 303°
2026-04-27 01:57 21.04081 -86.88066 48 ft 26 kts 303°
2026-04-27 01:57 21.04183 -86.88231 48 ft 27 kts 304°
2026-04-27 01:58 21.04288 -86.88398 48 ft 28 kts 304°
2026-04-27 01:58 21.04399 -86.88573 48 ft 28 kts 304°
2026-04-27 01:58 21.04505 -86.88738 48 ft 26 kts 304°
2026-04-27 01:58 21.04598 -86.88887 48 ft 13 kts 304°
2026-04-27 01:59 21.04637 -86.88973 47 ft 12 kts 276°
2026-04-27 01:59 21.04633 -86.88994 47 ft 0 kts 251°
2026-04-27 01:59 21.04632 -86.88996 47 ft 2 kts 249°
2026-04-27 02:00 21.04591 -86.89037 43 ft 12 kts 217°
2026-04-27 02:00 21.04513 -86.89056 42 ft 11 kts 146°
2026-04-27 02:00 21.04468 -86.88993 43 ft 10 kts 123°
2026-04-27 02:00 21.04371 -86.88836 44 ft 50 kts 123°
2026-04-27 02:01 21.04043 -86.88313 44 ft 117 kts 124°
2026-04-27 02:01 21.03477 -86.87410 61 ft 171 kts 124°
2026-04-27 02:01 21.02831 -86.86377 912 ft 161 kts 124°
2026-04-27 02:01 21.02171 -86.85316 1508 ft 182 kts 124°
2026-04-27 02:02 21.01101 -86.84465 2154 ft 207 kts 161°
2026-04-27 02:02 20.99594 -86.84545 2701 ft 231 kts 201°
2026-04-27 02:02 20.98150 -86.85459 3138 ft 255 kts 213°
2026-04-27 02:02 20.96629 -86.86567 3172 ft 270 kts 213°
2026-04-27 02:03 20.95077 -86.87731 3015 ft 273 kts 217°
2026-04-27 02:03 20.93830 -86.89250 2967 ft 274 kts 242°
2026-04-27 02:03 20.93269 -86.91160 2940 ft 272 kts 260°
2026-04-27 02:03 20.92990 -86.93178 3025 ft 276 kts 262°
2026-04-27 02:04 20.92733 -86.95195 2955 ft 273 kts 262°
2026-04-27 02:04 20.92464 -86.97217 2992 ft 275 kts 262°
2026-04-27 02:04 20.92185 -86.99237 2994 ft 275 kts 261°
2026-04-27 02:04 20.91904 -87.01259 3142 ft 276 kts 261°
2026-04-27 02:05 20.91610 -87.03309 3814 ft 279 kts 261°
2026-04-27 02:05 20.91314 -87.05352 4743 ft 277 kts 262°
2026-04-27 02:05 20.91018 -87.07396 5603 ft 278 kts 262°
2026-04-27 02:05 20.90721 -87.09450 6431 ft 281 kts 262°
2026-04-27 02:06 20.90424 -87.11507 7210 ft 286 kts 261°
2026-04-27 02:06 20.90114 -87.13622 8031 ft 290 kts 262°
2026-04-27 02:06 20.89802 -87.15760 8872 ft 292 kts 262°
2026-04-27 02:06 20.89488 -87.17920 9728 ft 295 kts 262°
2026-04-27 02:07 20.89170 -87.20106 10467 ft 304 kts 263°
2026-04-27 02:07 20.88837 -87.22408 10859 ft 323 kts 263°
2026-04-27 02:07 20.88486 -87.24841 11324 ft 337 kts 262°
2026-04-27 02:07 20.88121 -87.27355 11965 ft 345 kts 262°
2026-04-27 02:08 20.87748 -87.29917 12656 ft 352 kts 262°
2026-04-27 02:08 20.87367 -87.32520 13342 ft 357 kts 261°
2026-04-27 02:08 20.86981 -87.35159 14033 ft 361 kts 261°
2026-04-27 02:08 20.86588 -87.37837 14734 ft 365 kts 260°
2026-04-27 02:09 20.86197 -87.40494 15429 ft 368 kts 259°
2026-04-27 02:09 20.85798 -87.43200 16159 ft 369 kts 259°
2026-04-27 02:09 20.85397 -87.45914 16925 ft 370 kts 258°
2026-04-27 02:09 20.84997 -87.48624 17674 ft 370 kts 258°
2026-04-27 02:10 20.84595 -87.51338 18436 ft 369 kts 258°
2026-04-27 02:10 20.84194 -87.54048 19200 ft 369 kts 258°
2026-04-27 02:10 20.83793 -87.56764 19726 ft 370 kts 259°
2026-04-27 02:10 20.83391 -87.59477 19941 ft 368 kts 259°
2026-04-27 02:11 20.82987 -87.62179 20302 ft 368 kts 260°
2026-04-27 02:11 20.82584 -87.64878 20953 ft 368 kts 261°
2026-04-27 02:11 20.82179 -87.67593 21602 ft 369 kts 262°
2026-04-27 02:11 20.81772 -87.70321 22169 ft 373 kts 262°
2026-04-27 02:12 20.81361 -87.73084 22671 ft 379 kts 263°
2026-04-27 02:12 20.80942 -87.75893 23078 ft 387 kts 264°
2026-04-27 02:12 20.80432 -87.78711 23414 ft 397 kts 261°
2026-04-27 02:12 20.79792 -87.81636 23651 ft 410 kts 259°
2026-04-27 02:13 20.79077 -87.84618 23893 ft 420 kts 259°
2026-04-27 02:13 20.78316 -87.87680 24127 ft 430 kts 258°
2026-04-27 02:13 20.77534 -87.90805 24393 ft 438 kts 258°
2026-04-27 02:13 20.76744 -87.93975 24793 ft 443 kts 258°
2026-04-27 02:14 20.75957 -87.97157 25274 ft 445 kts 258°
2026-04-27 02:14 20.75169 -88.00371 25780 ft 447 kts 258°
2026-04-27 02:14 20.74381 -88.03598 26299 ft 449 kts 258°
2026-04-27 02:14 20.73592 -88.06841 26801 ft 451 kts 258°
2026-04-27 02:15 20.72813 -88.10048 27290 ft 453 kts 258°
2026-04-27 02:15 20.72008 -88.13354 27789 ft 455 kts 258°
2026-04-27 02:15 20.71220 -88.16591 28268 ft 457 kts 258°
2026-04-27 02:15 20.70417 -88.19895 28669 ft 461 kts 258°
2026-04-27 02:16 20.69605 -88.23227 29103 ft 463 kts 258°
2026-04-27 02:16 20.68789 -88.26563 29540 ft 465 kts 258°
2026-04-27 02:16 20.67969 -88.29907 29978 ft 467 kts 258°
2026-04-27 02:16 20.67145 -88.33264 30392 ft 468 kts 258°
2026-04-27 02:17 20.66337 -88.36649 30727 ft 470 kts 260°
2026-04-27 02:17 20.65830 -88.40093 31047 ft 470 kts 267°
2026-04-27 02:17 20.65782 -88.43586 31354 ft 470 kts 275°
2026-04-27 02:17 20.66242 -88.47043 31644 ft 471 kts 284°
2026-04-27 02:18 20.67223 -88.50383 31931 ft 472 kts 292°
2026-04-27 02:18 20.68605 -88.53522 32224 ft 474 kts 297°
2026-04-27 02:18 20.70135 -88.56647 32570 ft 474 kts 298°
2026-04-27 02:18 20.71711 -88.59740 32982 ft 473 kts 298°
2026-04-27 02:19 20.73295 -88.62817 33382 ft 472 kts 298°
2026-04-27 02:19 20.74874 -88.65893 33748 ft 472 kts 298°
2026-04-27 02:19 20.76442 -88.68970 34126 ft 471 kts 298°
2026-04-27 02:19 20.78002 -88.72054 34485 ft 470 kts 298°
2026-04-27 02:20 20.79549 -88.75129 34834 ft 469 kts 298°
2026-04-27 02:20 20.81092 -88.78208 35179 ft 469 kts 298°
2026-04-27 02:20 20.82626 -88.81273 35497 ft 468 kts 298°
2026-04-27 02:20 20.84158 -88.84340 35830 ft 467 kts 298°
2026-04-27 02:21 20.85674 -88.87372 36122 ft 467 kts 298°
2026-04-27 02:21 20.87206 -88.90439 36422 ft 467 kts 298°
2026-04-27 02:21 20.88735 -88.93501 36698 ft 467 kts 298°
2026-04-27 02:21 20.90261 -88.96557 36983 ft 466 kts 298°
2026-04-27 02:22 20.91786 -88.99613 37249 ft 465 kts 298°
2026-04-27 02:22 20.93313 -89.02673 37484 ft 465 kts 298°
2026-04-27 02:22 20.94835 -89.05727 37701 ft 466 kts 298°
2026-04-27 02:22 20.96362 -89.08793 37920 ft 466 kts 298°
2026-04-27 02:23 20.97882 -89.11855 38151 ft 466 kts 298°
2026-04-27 02:23 20.99406 -89.14921 38342 ft 466 kts 298°
2026-04-27 02:23 21.00925 -89.17976 38545 ft 466 kts 298°
2026-04-27 02:23 21.02429 -89.21001 38739 ft 466 kts 298°
2026-04-27 02:24 21.03953 -89.24070 38937 ft 466 kts 298°
2026-04-27 02:24 21.05473 -89.27133 39110 ft 466 kts 298°
2026-04-27 02:24 21.06993 -89.30200 39276 ft 466 kts 298°
2026-04-27 02:24 21.08517 -89.33269 39490 ft 465 kts 298°
2026-04-27 02:25 21.10038 -89.36322 39674 ft 465 kts 298°
2026-04-27 02:25 21.11557 -89.39379 39839 ft 465 kts 298°
2026-04-27 02:25 21.14604 -89.45529 39887 ft 469 kts 298°
2026-04-27 02:26 21.17651 -89.51697 39884 ft 470 kts 298°
2026-04-27 02:26 21.20709 -89.57894 39884 ft 470 kts 297°
2026-04-27 02:27 21.23765 -89.64096 39884 ft 470 kts 297°
2026-04-27 02:27 21.26651 -89.70407 39884 ft 471 kts 291°
2026-04-27 02:28 21.28234 -89.77173 39884 ft 471 kts 282°
2026-04-27 02:28 21.29311 -89.84113 39884 ft 472 kts 280°
2026-04-27 02:29 21.30308 -89.91073 39884 ft 472 kts 280°
2026-04-27 02:29 21.31323 -89.98047 39884 ft 472 kts 280°
2026-04-27 02:30 21.32353 -90.05014 39884 ft 472 kts 281°
2026-04-27 02:30 21.33379 -90.11940 39883 ft 474 kts 280°
2026-04-27 02:31 21.34416 -90.18960 39884 ft 477 kts 280°
2026-04-27 02:31 21.35448 -90.25986 39884 ft 477 kts 280°
2026-04-27 02:32 21.36479 -90.33018 39884 ft 477 kts 280°
2026-04-27 02:32 21.37507 -90.40058 39884 ft 477 kts 280°
2026-04-27 02:33 21.38525 -90.47041 39884 ft 477 kts 280°
2026-04-27 02:33 21.39546 -90.54079 39884 ft 477 kts 280°
2026-04-27 02:34 21.40564 -90.61121 39884 ft 477 kts 280°
2026-04-27 02:34 21.41579 -90.68162 39884 ft 477 kts 280°
2026-04-27 02:35 21.42593 -90.75210 39884 ft 477 kts 280°
2026-04-27 02:35 21.43602 -90.82246 39884 ft 477 kts 280°
2026-04-27 02:36 21.44604 -90.89256 39884 ft 477 kts 280°
2026-04-27 02:36 21.45608 -90.96302 39884 ft 477 kts 280°
2026-04-27 02:37 21.46609 -91.03352 39884 ft 477 kts 280°
2026-04-27 02:37 21.47605 -91.10389 39884 ft 477 kts 280°
2026-04-27 02:38 21.48602 -91.17449 39884 ft 477 kts 280°
2026-04-27 02:38 21.49592 -91.24484 39884 ft 477 kts 280°
2026-04-27 02:39 21.50575 -91.31492 39884 ft 477 kts 280°
2026-04-27 02:39 21.51562 -91.38547 39884 ft 477 kts 280°
2026-04-27 02:40 21.52544 -91.45592 39884 ft 477 kts 280°
2026-04-27 02:40 21.53360 -91.51460 39882 ft 478 kts 279°
2026-04-27 02:41 21.54346 -91.58566 39885 ft 483 kts 279°
2026-04-27 02:41 21.55333 -91.65712 39885 ft 484 kts 279°
2026-04-27 02:42 21.56320 -91.72879 39884 ft 484 kts 279°
2026-04-27 02:42 21.57303 -91.80044 39884 ft 484 kts 279°
2026-04-27 02:43 21.58278 -91.87166 39884 ft 484 kts 279°
2026-04-27 02:43 21.59254 -91.94326 39884 ft 484 kts 279°
2026-04-27 02:44 21.60230 -92.01498 39884 ft 484 kts 279°
2026-04-27 02:44 21.61205 -92.08663 39884 ft 484 kts 279°
2026-04-27 02:45 21.62177 -92.15835 39884 ft 484 kts 279°
2026-04-27 02:45 21.63138 -92.22958 39864 ft 484 kts 279°
2026-04-27 02:46 21.64102 -92.30120 39856 ft 483 kts 279°
2026-04-27 02:46 21.65061 -92.37265 39857 ft 483 kts 279°
2026-04-27 02:47 21.66018 -92.44419 39856 ft 483 kts 279°
2026-04-27 02:47 21.66970 -92.51567 39856 ft 483 kts 279°
2026-04-27 02:48 21.67920 -92.58720 39856 ft 483 kts 279°
2026-04-27 02:48 21.68862 -92.65832 39857 ft 483 kts 279°
2026-04-27 02:49 21.69805 -92.72984 39856 ft 483 kts 279°
2026-04-27 02:49 21.70745 -92.80139 39857 ft 483 kts 279°
2026-04-27 02:50 21.71679 -92.87290 39856 ft 483 kts 279°
2026-04-27 02:50 21.72611 -92.94453 39856 ft 483 kts 279°
2026-04-27 02:51 21.73541 -93.01621 39856 ft 483 kts 279°
2026-04-27 02:51 21.74466 -93.08771 39856 ft 483 kts 279°
2026-04-27 02:52 21.75384 -93.15896 39856 ft 483 kts 279°
2026-04-27 02:52 21.76305 -93.23065 39856 ft 483 kts 279°
2026-04-27 02:53 21.77222 -93.30232 39856 ft 483 kts 279°
2026-04-27 02:53 21.78137 -93.37399 39856 ft 483 kts 279°
2026-04-27 02:54 21.79047 -93.44562 39856 ft 483 kts 279°
2026-04-27 02:54 21.79949 -93.51681 39856 ft 483 kts 279°
2026-04-27 02:55 21.80855 -93.58864 39856 ft 483 kts 279°
2026-04-27 02:55 21.81757 -93.66042 39856 ft 482 kts 279°
2026-04-27 02:56 21.82648 -93.73155 39856 ft 481 kts 279°
2026-04-27 02:56 21.83541 -93.80289 39856 ft 481 kts 279°
2026-04-27 02:57 21.84423 -93.87430 39856 ft 481 kts 279°
2026-04-27 02:57 21.85296 -93.94519 39856 ft 481 kts 279°
2026-04-27 02:58 21.86174 -94.01658 39856 ft 481 kts 279°
2026-04-27 02:58 21.87048 -94.08791 39857 ft 481 kts 279°
2026-04-27 02:59 21.87918 -94.15906 39857 ft 481 kts 279°
2026-04-27 02:59 21.88786 -94.23044 39856 ft 481 kts 279°
2026-04-27 03:00 21.89653 -94.30197 39856 ft 481 kts 279°
2026-04-27 03:00 21.90517 -94.37341 39808 ft 479 kts 279°
2026-04-27 03:01 21.91371 -94.44446 39802 ft 477 kts 279°
2026-04-27 03:01 21.92221 -94.51533 39802 ft 477 kts 279°
2026-04-27 03:02 21.93062 -94.58572 39802 ft 477 kts 279°
2026-04-27 03:02 21.93906 -94.65661 39801 ft 477 kts 279°
2026-04-27 03:03 21.95162 -94.76264 39801 ft 477 kts 279°
2026-04-27 03:04 21.95999 -94.83362 39801 ft 477 kts 279°
2026-04-27 03:04 21.96832 -94.90452 39801 ft 477 kts 279°
2026-04-27 03:05 21.97657 -94.97499 39801 ft 477 kts 279°
2026-04-27 03:05 21.98486 -95.04593 39802 ft 477 kts 279°
2026-04-27 03:06 21.99316 -95.11681 39774 ft 476 kts 279°
2026-04-27 03:06 22.00143 -95.18763 39774 ft 476 kts 279°
2026-04-27 03:07 22.00967 -95.25851 39774 ft 476 kts 279°
2026-04-27 03:07 22.01780 -95.32877 39774 ft 476 kts 279°
2026-04-27 03:08 22.02597 -95.39964 39774 ft 476 kts 279°
2026-04-27 03:08 22.03410 -95.47045 39774 ft 476 kts 279°
2026-04-27 03:09 22.04219 -95.54121 39774 ft 476 kts 279°
2026-04-27 03:09 22.05021 -95.61161 39774 ft 476 kts 279°
2026-04-27 03:10 22.05825 -95.68243 39774 ft 476 kts 279°
2026-04-27 03:10 22.06626 -95.75329 39774 ft 476 kts 279°
2026-04-27 03:11 22.07423 -95.82411 39774 ft 475 kts 279°
2026-04-27 03:11 22.08217 -95.89487 39774 ft 475 kts 279°
2026-04-27 03:12 22.09008 -95.96565 39774 ft 475 kts 279°
2026-04-27 03:12 22.09796 -96.03645 39774 ft 475 kts 279°
2026-04-27 03:13 22.10581 -96.10729 39774 ft 475 kts 279°
2026-04-27 03:13 22.11363 -96.17814 39774 ft 475 kts 279°
2026-04-27 03:14 22.12138 -96.24863 39774 ft 475 kts 279°
2026-04-27 03:14 22.12818 -96.31969 39774 ft 476 kts 277°
2026-04-27 03:15 22.13411 -96.39078 39774 ft 476 kts 277°
2026-04-27 03:15 22.14014 -96.46191 39774 ft 476 kts 277°
2026-04-27 03:16 22.14628 -96.53259 39802 ft 476 kts 277°
2026-04-27 03:16 22.15245 -96.60371 39803 ft 476 kts 277°
2026-04-27 03:17 22.15860 -96.67478 39801 ft 476 kts 277°
2026-04-27 03:17 22.16473 -96.74590 39801 ft 476 kts 277°
2026-04-27 03:18 22.17082 -96.81703 39802 ft 476 kts 277°
2026-04-27 03:18 22.17688 -96.88816 39801 ft 476 kts 277°
2026-04-27 03:19 22.18292 -96.95941 39802 ft 476 kts 277°
2026-04-27 03:19 22.18892 -97.03052 39801 ft 476 kts 277°
2026-04-27 03:20 22.19486 -97.10125 39802 ft 476 kts 277°
2026-04-27 03:20 22.20081 -97.17254 39801 ft 476 kts 277°
2026-04-27 03:21 22.20671 -97.24366 39802 ft 474 kts 277°
2026-04-27 03:21 22.21256 -97.31455 39801 ft 474 kts 277°
2026-04-27 03:22 22.21835 -97.38494 39801 ft 474 kts 277°
2026-04-27 03:22 22.22414 -97.45579 39801 ft 474 kts 277°
2026-04-27 03:23 22.22990 -97.52669 39801 ft 474 kts 277°
2026-04-27 03:23 22.23563 -97.59754 39801 ft 474 kts 277°
2026-04-27 03:24 22.24129 -97.66795 39801 ft 474 kts 277°
2026-04-27 03:24 22.24696 -97.73883 39802 ft 474 kts 277°
2026-04-27 03:25 22.25260 -97.80985 39802 ft 474 kts 277°
2026-04-27 03:25 22.25822 -97.88082 39803 ft 474 kts 277°
2026-04-27 03:26 22.26379 -97.95169 39801 ft 474 kts 277°
2026-04-27 03:26 22.26930 -98.02217 39802 ft 474 kts 277°
2026-04-27 03:27 22.27481 -98.09312 39801 ft 474 kts 277°
2026-04-27 03:27 22.28030 -98.16408 39801 ft 474 kts 277°
2026-04-27 03:28 22.28573 -98.23476 39802 ft 474 kts 277°
2026-04-27 03:28 22.29116 -98.30569 39802 ft 474 kts 277°
2026-04-27 03:29 22.29656 -98.37677 39802 ft 474 kts 277°
2026-04-27 03:29 22.30192 -98.44772 39801 ft 474 kts 277°
2026-04-27 03:30 22.30636 -98.50681 39802 ft 474 kts 277°
2026-04-27 03:30 22.31167 -98.57786 39802 ft 474 kts 277°
2026-04-27 03:31 22.31691 -98.64847 39802 ft 474 kts 277°
2026-04-27 03:31 22.32217 -98.71961 39802 ft 474 kts 277°
2026-04-27 03:32 22.32739 -98.79073 39800 ft 475 kts 277°
2026-04-27 03:32 22.33256 -98.86151 39801 ft 475 kts 277°
2026-04-27 03:33 22.33773 -98.93270 39801 ft 475 kts 277°
2026-04-27 03:33 22.34288 -99.00409 39802 ft 477 kts 277°
2026-04-27 03:34 22.34799 -99.07548 39801 ft 476 kts 277°
2026-04-27 03:34 22.35307 -99.14683 39801 ft 476 kts 277°
2026-04-27 03:35 22.35812 -99.21824 39803 ft 476 kts 277°
2026-04-27 03:35 22.36312 -99.28920 39801 ft 476 kts 277°
2026-04-27 03:36 22.36809 -99.36050 39800 ft 473 kts 277°
2026-04-27 03:36 22.37304 -99.43156 39803 ft 474 kts 277°
2026-04-27 03:37 22.37795 -99.50277 39803 ft 475 kts 277°
2026-04-27 03:37 22.38281 -99.57374 39802 ft 478 kts 277°
2026-04-27 03:38 22.38769 -99.64542 39801 ft 477 kts 277°
2026-04-27 03:38 22.39253 -99.71699 39802 ft 476 kts 277°
2026-04-27 03:39 22.39733 -99.78835 39803 ft 475 kts 277°
2026-04-27 03:39 22.40206 -99.85919 39802 ft 475 kts 277°
2026-04-27 03:40 22.40679 -99.93046 39801 ft 475 kts 277°
2026-04-27 03:40 22.41149 -100.00171 39802 ft 476 kts 277°
2026-04-27 03:40 22.41383 -100.03741 39934 ft 474 kts 277°
2026-04-27 03:41 22.41614 -100.07283 40130 ft 472 kts 277°
2026-04-27 03:41 22.42074 -100.14339 40158 ft 475 kts 277°
2026-04-27 03:42 22.42535 -100.21473 40158 ft 476 kts 277°
2026-04-27 03:42 22.42993 -100.28623 40158 ft 476 kts 276°
2026-04-27 03:43 22.43448 -100.35765 40158 ft 476 kts 276°
2026-04-27 03:43 22.43900 -100.42920 40157 ft 477 kts 276°
2026-04-27 03:44 22.44351 -100.50085 40157 ft 479 kts 276°
2026-04-27 03:44 22.44800 -100.57286 40157 ft 480 kts 276°
2026-04-27 03:45 22.45245 -100.64481 40156 ft 479 kts 276°
2026-04-27 03:45 22.45687 -100.71678 40157 ft 480 kts 276°
2026-04-27 03:46 22.46129 -100.78901 40157 ft 483 kts 276°
2026-04-27 03:46 22.46566 -100.86129 40157 ft 485 kts 276°
2026-04-27 03:47 22.47003 -100.93414 40158 ft 485 kts 276°
2026-04-27 03:47 22.47438 -101.00695 40158 ft 485 kts 275°
2026-04-27 03:48 22.47868 -101.07965 40155 ft 484 kts 275°
2026-04-27 03:48 22.48295 -101.15243 40158 ft 485 kts 275°
2026-04-27 03:49 22.48721 -101.22543 40156 ft 486 kts 275°
2026-04-27 03:49 22.49144 -101.29856 40154 ft 487 kts 275°
2026-04-27 03:50 22.49562 -101.37133 40156 ft 487 kts 275°
2026-04-27 03:50 22.49979 -101.44447 40157 ft 487 kts 275°
2026-04-27 03:51 22.50391 -101.51740 40156 ft 484 kts 275°
2026-04-27 03:51 22.50798 -101.59006 40156 ft 484 kts 275°
2026-04-27 03:52 22.51202 -101.66281 40157 ft 484 kts 275°
2026-04-27 03:52 22.51603 -101.73556 40158 ft 485 kts 275°
2026-04-27 03:53 22.51998 -101.80776 40156 ft 484 kts 275°
2026-04-27 03:53 22.52392 -101.88054 40157 ft 484 kts 275°
2026-04-27 03:54 22.52784 -101.95333 40157 ft 485 kts 275°
2026-04-27 03:54 22.53173 -102.02625 40157 ft 485 kts 275°
2026-04-27 03:55 22.53557 -102.09904 40157 ft 485 kts 275°
2026-04-27 03:55 22.53939 -102.17192 40156 ft 485 kts 275°
2026-04-27 03:56 22.54318 -102.24472 40211 ft 484 kts 275°
2026-04-27 03:56 22.54692 -102.31743 40211 ft 484 kts 275°
2026-04-27 03:57 22.55061 -102.38967 40211 ft 485 kts 275°
2026-04-27 03:57 22.55432 -102.46304 40211 ft 485 kts 274°
2026-04-27 03:58 22.55796 -102.53558 40211 ft 485 kts 274°
2026-04-27 03:58 22.56159 -102.60855 40211 ft 486 kts 274°
2026-04-27 03:59 22.56519 -102.68153 40210 ft 486 kts 274°
2026-04-27 03:59 22.56875 -102.75461 40213 ft 486 kts 274°
2026-04-27 04:00 22.57228 -102.82760 40210 ft 485 kts 274°
2026-04-27 04:00 22.57577 -102.90052 40211 ft 485 kts 274°
2026-04-27 04:01 22.57921 -102.97301 40212 ft 485 kts 274°
2026-04-27 04:01 22.58264 -103.04602 40210 ft 485 kts 274°
2026-04-27 04:02 22.58603 -103.11882 40210 ft 485 kts 274°
2026-04-27 04:02 22.58939 -103.19180 40211 ft 485 kts 274°
2026-04-27 04:03 22.59270 -103.26424 40210 ft 485 kts 274°
2026-04-27 04:03 22.59599 -103.33727 40214 ft 486 kts 274°
2026-04-27 04:04 22.59925 -103.41039 40211 ft 486 kts 274°
2026-04-27 04:04 22.60249 -103.48338 40211 ft 485 kts 274°
2026-04-27 04:05 22.60568 -103.55625 40211 ft 485 kts 274°
2026-04-27 04:05 22.60884 -103.62915 40211 ft 485 kts 274°
2026-04-27 04:06 22.61194 -103.70139 40209 ft 480 kts 274°
2026-04-27 04:06 22.61500 -103.77347 40211 ft 479 kts 274°
2026-04-27 04:07 22.61952 -103.88138 40212 ft 477 kts 274°
2026-04-27 04:07 22.62249 -103.95319 40212 ft 477 kts 274°
2026-04-27 04:08 22.62540 -104.02449 40212 ft 475 kts 274°
2026-04-27 04:08 22.62828 -104.09566 40213 ft 473 kts 274°
2026-04-27 04:09 22.63113 -104.16683 40209 ft 474 kts 274°
2026-04-27 04:09 22.63395 -104.23826 40213 ft 475 kts 274°
2026-04-27 04:10 22.63676 -104.30996 40214 ft 477 kts 274°
2026-04-27 04:10 22.63956 -104.38188 40079 ft 479 kts 273°
2026-04-27 04:11 22.64227 -104.45314 40044 ft 472 kts 273°
2026-04-27 04:11 22.64494 -104.52395 40056 ft 469 kts 273°
2026-04-27 04:12 22.64758 -104.59472 40045 ft 469 kts 273°
2026-04-27 04:12 22.65018 -104.66523 40042 ft 469 kts 273°
2026-04-27 04:13 22.65274 -104.73540 40047 ft 471 kts 273°
2026-04-27 04:13 22.65531 -104.80677 40047 ft 472 kts 273°
2026-04-27 04:14 22.65782 -104.87766 40052 ft 470 kts 273°
2026-04-27 04:14 22.66030 -104.94825 40055 ft 467 kts 273°
2026-04-27 04:15 22.66276 -105.01875 40053 ft 469 kts 273°
2026-04-27 04:15 22.66479 -105.07757 39986 ft 472 kts 272°
2026-04-27 04:16 22.66759 -105.16025 39938 ft 472 kts 272°
2026-04-27 04:16 22.66994 -105.23107 39939 ft 468 kts 272°
2026-04-27 04:17 22.67189 -105.28983 39938 ft 464 kts 272°
2026-04-27 04:17 22.67452 -105.37096 39939 ft 462 kts 272°
2026-04-27 04:18 22.67638 -105.42888 39938 ft 463 kts 272°
2026-04-27 04:18 22.67859 -105.49852 39938 ft 462 kts 272°
2026-04-27 04:19 22.68077 -105.56819 39940 ft 463 kts 272°
2026-04-27 04:19 22.68290 -105.63737 39938 ft 461 kts 272°
2026-04-27 04:20 22.68501 -105.70679 39939 ft 461 kts 272°
2026-04-27 04:20 22.68710 -105.77629 39939 ft 461 kts 272°
2026-04-27 04:21 22.68915 -105.84568 39939 ft 461 kts 272°
2026-04-27 04:21 22.69117 -105.91511 39939 ft 461 kts 272°
2026-04-27 04:22 22.69315 -105.98401 39939 ft 461 kts 272°
2026-04-27 04:22 22.69511 -106.05345 39939 ft 461 kts 272°
2026-04-27 04:23 22.69704 -106.12291 39938 ft 461 kts 271°
2026-04-27 04:23 22.69894 -106.19229 39939 ft 461 kts 271°
2026-04-27 04:24 22.70081 -106.26172 39939 ft 461 kts 271°
2026-04-27 04:24 22.70265 -106.33077 39939 ft 461 kts 271°
2026-04-27 04:25 22.70446 -106.40029 39939 ft 461 kts 271°
2026-04-27 04:25 22.70624 -106.46932 39938 ft 462 kts 271°
2026-04-27 04:26 22.70799 -106.53895 39939 ft 463 kts 271°
2026-04-27 04:26 22.70972 -106.60883 39938 ft 464 kts 271°
2026-04-27 04:27 22.71143 -106.67876 39938 ft 464 kts 271°
2026-04-27 04:27 22.71310 -106.74871 39938 ft 464 kts 271°
2026-04-27 04:28 22.71474 -106.81857 39939 ft 464 kts 271°
2026-04-27 04:28 22.71636 -106.88852 39939 ft 464 kts 271°
2026-04-27 04:29 22.71793 -106.95802 39938 ft 464 kts 271°
2026-04-27 04:29 22.71948 -107.02794 39938 ft 464 kts 271°
2026-04-27 04:30 22.72100 -107.09784 39938 ft 464 kts 271°
2026-04-27 04:30 22.72250 -107.16788 39937 ft 465 kts 271°
2026-04-27 04:31 22.72396 -107.23822 39939 ft 468 kts 271°
2026-04-27 04:31 22.72540 -107.30844 39939 ft 469 kts 271°
2026-04-27 04:32 22.72681 -107.37907 39938 ft 469 kts 271°
2026-04-27 04:32 22.72820 -107.44975 39939 ft 469 kts 271°
2026-04-27 04:33 22.72955 -107.52040 39939 ft 469 kts 271°
2026-04-27 04:33 22.73087 -107.59102 39901 ft 468 kts 271°
2026-04-27 04:34 22.73150 -107.62556 39472 ft 462 kts 271°
2026-04-27 04:34 22.73213 -107.66031 38785 ft 460 kts 271°
2026-04-27 04:34 22.73276 -107.69497 38116 ft 458 kts 271°
2026-04-27 04:34 22.73337 -107.72942 37415 ft 457 kts 270°
2026-04-27 04:35 22.73397 -107.76377 36758 ft 455 kts 270°
2026-04-27 04:35 22.73456 -107.79797 36101 ft 454 kts 270°
2026-04-27 04:35 22.73514 -107.83210 35431 ft 452 kts 270°
2026-04-27 04:35 22.73572 -107.86609 34750 ft 452 kts 270°
2026-04-27 04:36 22.73629 -107.90025 33979 ft 452 kts 270°
2026-04-27 04:36 22.73685 -107.93436 33188 ft 453 kts 270°
2026-04-27 04:36 22.73740 -107.96859 32386 ft 454 kts 270°
2026-04-27 04:36 22.73794 -108.00279 31567 ft 455 kts 270°
2026-04-27 04:37 22.73847 -108.03672 30733 ft 456 kts 270°
2026-04-27 04:37 22.73901 -108.07119 29858 ft 458 kts 271°
2026-04-27 04:37 22.73954 -108.10578 28950 ft 459 kts 271°
2026-04-27 04:37 22.74008 -108.14033 28260 ft 457 kts 270°
2026-04-27 04:38 22.74060 -108.17470 27629 ft 452 kts 270°
2026-04-27 04:38 22.74110 -108.20868 27003 ft 448 kts 270°
2026-04-27 04:38 22.74158 -108.24187 26384 ft 444 kts 270°
2026-04-27 04:38 22.74206 -108.27522 25758 ft 440 kts 270°
2026-04-27 04:39 22.74253 -108.30827 25144 ft 436 kts 270°
2026-04-27 04:39 22.74298 -108.34106 24523 ft 433 kts 270°
2026-04-27 04:39 22.74343 -108.37350 23916 ft 429 kts 270°
2026-04-27 04:39 22.74386 -108.40569 23309 ft 425 kts 270°
2026-04-27 04:40 22.74429 -108.43769 22708 ft 422 kts 269°
2026-04-27 04:40 22.74470 -108.46897 22106 ft 419 kts 269°
2026-04-27 04:40 22.74512 -108.50083 21503 ft 416 kts 269°
2026-04-27 04:40 22.74713 -108.53150 21154 ft 413 kts 277°
2026-04-27 04:41 22.75463 -108.56173 20682 ft 417 kts 287°
2026-04-27 04:41 22.76460 -108.59120 20083 ft 415 kts 289°
2026-04-27 04:41 22.77480 -108.62044 19469 ft 413 kts 289°
2026-04-27 04:41 22.78488 -108.64955 18853 ft 411 kts 289°
2026-04-27 04:42 22.79484 -108.67850 18250 ft 408 kts 289°
2026-04-27 04:42 22.80470 -108.70732 17630 ft 406 kts 289°
2026-04-27 04:42 22.81447 -108.73592 17013 ft 403 kts 289°
2026-04-27 04:42 22.82418 -108.76441 16389 ft 402 kts 289°
2026-04-27 04:43 22.83373 -108.79247 15759 ft 400 kts 289°
2026-04-27 04:43 22.84333 -108.82069 15119 ft 398 kts 289°
2026-04-27 04:43 22.85287 -108.84877 14492 ft 396 kts 289°
2026-04-27 04:43 22.86234 -108.87668 13874 ft 393 kts 290°
2026-04-27 04:44 22.87177 -108.90446 13697 ft 396 kts 290°
2026-04-27 04:44 22.88132 -108.93262 13525 ft 399 kts 290°
2026-04-27 04:44 22.89088 -108.96082 13315 ft 398 kts 290°
2026-04-27 04:44 22.90028 -108.98858 13085 ft 396 kts 290°
2026-04-27 04:45 22.90989 -109.01697 12876 ft 396 kts 290°
2026-04-27 04:45 22.91925 -109.04462 12663 ft 395 kts 290°
2026-04-27 04:45 22.92869 -109.07254 12448 ft 393 kts 290°
2026-04-27 04:45 22.93809 -109.10036 12233 ft 393 kts 290°
2026-04-27 04:46 22.94749 -109.12822 12018 ft 393 kts 290°
2026-04-27 04:46 22.95683 -109.15590 11806 ft 392 kts 290°
2026-04-27 04:46 22.96621 -109.18373 11594 ft 391 kts 290°
2026-04-27 04:46 22.97555 -109.21146 11379 ft 390 kts 290°
2026-04-27 04:47 22.98484 -109.23905 11168 ft 389 kts 290°
2026-04-27 04:47 22.99404 -109.26639 10987 ft 379 kts 290°
2026-04-27 04:47 23.00424 -109.29198 10804 ft 362 kts 300°
2026-04-27 04:47 23.01955 -109.31282 10616 ft 346 kts 314°
2026-04-27 04:48 23.03644 -109.33072 10431 ft 332 kts 316°
2026-04-27 04:48 23.05285 -109.34775 10238 ft 319 kts 316°
2026-04-27 04:48 23.06859 -109.36419 10069 ft 308 kts 316°
2026-04-27 04:48 23.08373 -109.38007 9857 ft 298 kts 316°
2026-04-27 04:49 23.09844 -109.39554 9702 ft 294 kts 316°
2026-04-27 04:49 23.11115 -109.40892 9568 ft 294 kts 316°
2026-04-27 04:49 23.12583 -109.42440 9408 ft 293 kts 315°
2026-04-27 04:49 23.14046 -109.43984 9240 ft 293 kts 315°
2026-04-27 04:50 23.15506 -109.45527 9083 ft 292 kts 315°
2026-04-27 04:50 23.16959 -109.47064 8882 ft 292 kts 315°
2026-04-27 04:50 23.18414 -109.48601 8499 ft 291 kts 315°
2026-04-27 04:50 23.19871 -109.50131 8029 ft 292 kts 315°
2026-04-27 04:51 23.21315 -109.51652 7581 ft 292 kts 315°
2026-04-27 04:51 23.22767 -109.53185 7144 ft 290 kts 315°
2026-04-27 04:51 23.24213 -109.54711 6734 ft 289 kts 315°
2026-04-27 04:51 23.25652 -109.56230 6342 ft 287 kts 315°
2026-04-27 04:52 23.27086 -109.57746 5932 ft 287 kts 315°
2026-04-27 04:52 23.28518 -109.59259 5532 ft 286 kts 315°
2026-04-27 04:52 23.29946 -109.60768 5132 ft 285 kts 316°
2026-04-27 04:52 23.31364 -109.62268 4726 ft 284 kts 316°
2026-04-27 04:53 23.32758 -109.63780 4317 ft 282 kts 313°
2026-04-27 04:53 23.33738 -109.65593 4039 ft 276 kts 286°
2026-04-27 04:53 23.33865 -109.67631 3879 ft 265 kts 266°
2026-04-27 04:53 23.33679 -109.69595 3736 ft 256 kts 264°
2026-04-27 04:54 23.33415 -109.71470 3683 ft 246 kts 256°
2026-04-27 04:54 23.32483 -109.72967 3538 ft 240 kts 217°
2026-04-27 04:54 23.30973 -109.73665 3286 ft 235 kts 195°
2026-04-27 04:54 23.29367 -109.73821 2978 ft 236 kts 173°
2026-04-27 04:55 23.27753 -109.73506 2664 ft 234 kts 168°
2026-04-27 04:55 23.26156 -109.73276 2277 ft 227 kts 175°
2026-04-27 04:55 23.24636 -109.73148 1956 ft 211 kts 175°
2026-04-27 04:55 23.23229 -109.72989 1700 ft 195 kts 173°
2026-04-27 04:56 23.21918 -109.72837 1447 ft 184 kts 174°
2026-04-27 04:56 23.20700 -109.72701 1210 ft 172 kts 174°
2026-04-27 04:56 23.19547 -109.72569 997 ft 158 kts 174°
2026-04-27 04:56 23.18501 -109.72450 787 ft 148 kts 174°
2026-04-27 04:57 23.17506 -109.72338 613 ft 139 kts 174°
2026-04-27 04:57 23.16550 -109.72232 427 ft 138 kts 174°
2026-04-27 04:57 23.15621 -109.72120 377 ft 115 kts 174°
2026-04-27 04:57 23.15194 -109.72073 377 ft 17 kts 174°
2026-04-27 04:58 23.15076 -109.72047 378 ft 18 kts 156°
2026-04-27 04:58 23.14959 -109.71980 377 ft 20 kts 151°
2026-04-27 04:58 23.14855 -109.71895 377 ft 15 kts 127°
2026-04-27 04:58 23.14849 -109.71859 377 ft 1 kts 64°
2026-04-27 04:59 23.14867 -109.71846 377 ft 7 kts 27°
2026-04-27 04:59 23.14925 -109.71837 377 ft 10 kts
2026-04-27 04:59 23.14969 -109.71835 377 ft 0 kts
2026-04-27 04:59 23.15000 -109.71841 377 ft 8 kts 350°
2026-04-27 05:00 23.15063 -109.71852 377 ft 11 kts 351°
2026-04-27 05:00 23.15147 -109.71863 377 ft 13 kts 354°
2026-04-27 05:00 23.15248 -109.71874 377 ft 16 kts 354°
2026-04-27 05:00 23.15367 -109.71887 377 ft 18 kts 354°
2026-04-27 05:01 23.15416 -109.71892 377 ft 1 kts 354°
2026-04-27 05:01 23.15444 -109.71886 377 ft 8 kts 25°
2026-04-27 05:01 23.15499 -109.71839 377 ft 11 kts 28°
2026-04-27 05:01 23.15539 -109.71823 377 ft 3 kts 32°
2026-04-27 05:02 23.15550 -109.71795 377 ft 5 kts 77°
2026-04-27 05:02 23.15554 -109.71773 377 ft 0 kts 81°